TimeCST,TemperatureF,Dew PointF,Humidity,Sea Level PressureIn,VisibilityMPH,Wind Direction,Wind SpeedMPH,Gust SpeedMPH,PrecipitationIn,Events,Conditions,WindDirDegrees,DateUTC
12:55 AM,19.4,8.6,63,30.32,10.0,Calm,Calm,-,N/A,,Scattered Clouds,0,2013-01-15 06:55:00
1:55 AM,19.9,9.0,62,30.36,10.0,Calm,Calm,-,N/A,,Scattered Clouds,0,2013-01-15 07:55:00
2:55 AM,18.0,8.1,65,30.36,10.0,Calm,Calm,-,N/A,,Clear,0,2013-01-15 08:55:00
3:55 AM,17.1,9.0,71,30.35,10.0,Calm,Calm,-,N/A,,Mostly Cloudy,0,2013-01-15 09:55:00
4:55 AM,19.0,8.1,62,30.35,10.0,SSW,3.5,-,N/A,,Clear,200,2013-01-15 10:55:00
5:55 AM,19.0,10.0,68,30.36,10.0,SSW,8.1,-,N/A,,Mostly Cloudy,200,2013-01-15 11:55:00
6:55 AM,18.0,9.0,68,30.36,10.0,SW,5.8,-,N/A,,Mostly Cloudy,230,2013-01-15 12:55:00
7:55 AM,16.0,8.1,71,30.37,10.0,SW,3.5,-,N/A,,Partly Cloudy,220,2013-01-15 13:55:00
8:55 AM,19.9,12.0,71,30.35,10.0,SW,3.5,-,N/A,,Clear,220,2013-01-15 14:55:00
9:55 AM,27.0,12.0,53,30.35,10.0,WSW,4.6,-,N/A,,Clear,250,2013-01-15 15:55:00
10:55 AM,28.9,16.0,58,30.33,10.0,West,10.4,-,N/A,,Clear,260,2013-01-15 16:55:00
11:55 AM,30.9,18.0,59,30.30,10.0,WSW,6.9,-,N/A,,Clear,250,2013-01-15 17:55:00
12:55 PM,33.1,18.0,54,30.27,10.0,West,10.4,-,N/A,,Clear,260,2013-01-15 18:55:00
1:55 PM,33.1,16.0,50,30.25,10.0,WSW,8.1,-,N/A,,Partly Cloudy,240,2013-01-15 19:55:00
2:55 PM,35.1,17.1,48,30.25,10.0,WSW,10.4,-,N/A,,Scattered Clouds,250,2013-01-15 20:55:00
3:55 PM,32.0,17.1,54,30.24,10.0,WSW,6.9,-,N/A,,Scattered Clouds,240,2013-01-15 21:55:00
4:55 PM,32.0,16.0,52,30.23,10.0,SW,9.2,-,N/A,,Partly Cloudy,230,2013-01-15 22:55:00
5:55 PM,27.0,17.1,66,30.22,10.0,SSW,5.8,-,N/A,,Clear,210,2013-01-15 23:55:00
6:55 PM,23.0,16.0,74,30.23,10.0,South,6.9,-,N/A,,Clear,190,2013-01-16 00:55:00
7:55 PM,26.1,17.1,69,30.22,10.0,South,11.5,-,N/A,,Clear,190,2013-01-16 01:55:00
8:55 PM,24.1,17.1,75,30.19,10.0,South,12.7,-,N/A,,Clear,190,2013-01-16 02:55:00
9:55 PM,24.1,17.1,75,30.17,10.0,SSW,10.4,-,N/A,,Clear,210,2013-01-16 03:55:00
10:55 PM,23.0,16.0,74,30.16,10.0,SSW,12.7,-,N/A,,Clear,210,2013-01-16 04:55:00
11:55 PM,24.8,15.8,69,30.09,10.0,SW,11.5,-,N/A,,Clear,220,2013-01-16 05:55:00